This demonstration page uses our WeatherBlox Daily Observations layout. Learn more.

Left ArrowRight Arrow

Hourly Observations for May 16, 2021

Temp ( °F °C ) Dew Point ( °F °C ) Humidity (%) Winds ( mph kmh ) Pressure ( in mb ) Visibility ( mi km ) Precip ( " mm )
12:53 am 00:53 Clear 64 17.8 52 11.1 65 65 Calm 29.79 1009 10 16 0.00 0.00
1:53 am 01:53 Clear 62 16.7 52 11.1 70 70 Calm 29.79 1009 10 16 0.00 0.00
2:53 am 02:53 Clear 61 16.1 52 11.1 72 72 N 3 6 29.79 1009 10 16 0.00 0.00
3:53 am 03:53 Clear 59 15 52 11.1 78 78 Calm 29.79 1009 10 16 0.00 0.00
4:53 am 04:53 Clear 57 13.9 51 10.6 81 81 Calm 29.80 1009 10 16 0.00 0.00
5:53 am 05:53 Sunny 56 13.3 51 10.6 84 84 Calm 29.80 1009 10 16 0.00 0.00
6:53 am 06:53 Sunny 57 13.9 52 11.1 83 83 Calm 29.82 1010 10 16 0.00 0.00
7:53 am 07:53 Sunny 60 15.6 53 11.7 78 78 SE 5 7 29.83 1010 10 16 0.00 0.00
8:53 am 08:53 Sunny 68 20 54 12.2 61 61 S 8 13 29.84 1011 10 16 0.00 0.00
9:53 am 09:53 Sunny 71 21.7 53 11.7 53 53 SSW 8 13 29.84 1011 10 16 0.00 0.00
10:53 am 10:53 Sunny 75 23.9 53 11.7 46 46 S 8 13 29.83 1010 10 16 0.00 0.00
11:53 am 11:53 Sunny 78 25.6 52 11.1 40 40 SSE 8 13 29.82 1010 10 16 0.00 0.00
12:53 pm 12:53 Sunny 81 27.2 53 11.7 38 38 S 9 15 29.80 1009 10 16 0.00 0.00
1:53 pm 13:53 Sunny 84 28.9 53 11.7 34 34 SSE 12 19 29.78 1008 10 16 0.00 0.00
2:53 pm 14:53 Sunny 87 30.6 53 11.7 31 31 SSE 13 20 29.76 1008 10 16 0.00 0.00
3:53 pm 15:53 Sunny 89 31.7 50 10 26 26 SSE 12 19 29.74 1007 10 16 0.00 0.00
4:53 pm 16:53 Sunny 89 31.7 49 9.4 25 25 S 15 24 29.71 1006 10 16 0.00 0.00
5:53 pm 17:53 Sunny 86 30 51 10.6 30 30 S 17 28 29.71 1006 10 16 0.00 0.00
6:53 pm 18:53 Sunny 82 27.8 54 12.2 38 38 SSE 16 26 29.73 1007 10 16 0.00 0.00
7:53 pm 19:53 Sunny 78 25.6 54 12.2 43 43 S 16 26 29.76 1008 10 16 0.00 0.00
8:53 pm 20:53 Clear 76 24.4 54 12.2 47 47 SSW 8 13 29.79 1009 10 16 0.00 0.00
9:53 pm 21:53 Clear 74 23.3 53 11.7 48 48 VRB 6 9 29.83 1010 10 16 0.00 0.00
10:53 pm 22:53 Clear 73 22.8 52 11.1 48 48 SW 8 13 29.86 1011 10 16 0.00 0.00
11:53 pm 23:53 Clear 70 21.1 52 11.1 53 53 SW 7 11 29.88 1012 10 16 0.00 0.00

Powered by AerisWeather